Volver al catálogo

STARLINK-34052

ActivoComunicacionesVLEO
NORAD 63874·PAYLOAD·🇺🇸 United States

Lanzado May 10, 2025 desde Vandenberg Space Force Base

Loading…

Próximos Pases (próximas 24 horas)

TLE

ActualizadoSource: CelesTrak SupGP

Época: Sep 15, 2026, 02:38 UTC

1 63874C 25094L   26258.11020833  .00003559  00000+0  12366-3 0  2589
2 63874  69.9986 115.0221 0003122 273.7694  56.2015 15.29610821    10

Sigue STARLINK-34052 en tiempo real con AllMySat

Download on the App Store